Location: Krakow
(50.0212°N, 19.9423°E)
Time: 20:38:51
(UTC+02:00)

UWE-3 - Pass Details

Date: 30 April 2024
Orbit: 569 x 652 km, 97.8° (Epoch: 19 May)

Event Time Altitude Azimuth Distance (km) Brightness Sun altitude
Rises 03:16:42 0° 14° (NNE) 2,885 ? -16.3°
Reaches altitude 10° 03:18:52 10° 16° (NNE) 1,989 ? -16.0°
Maximum altitude 03:23:12 77° 104° (ESE) 651 ? -15.6°
Enters shadow 03:26:12 20° 187° (S) 1,459 ? -15.3°
